Regional Weather Roundup
Issued by NWS Wakefield, VA

Home | Current Version | Previous Version | Graphics & Text | Print | Product List | Glossary On
Versions: 1 2 3 4 5 6 7 8 9 10 11 12 13 14 15 16 17 18 19 20 21 22 23 24 25 26 27 28 29 30 31 32 33 34 35 36 37 38 39 40 41 42 43 44 45 46 47 48 49 50
000
ASUS41 KAKQ 260114
RWRAKQ

REGIONAL WEATHER ROUNDUP
NATIONAL WEATHER SERVICE WAKEFIELD VA
900 PM EDT MON MAY 25 2015

Note: "fair" indicates few or no clouds below 12,000 feet with no
significant weather and/or obstructions to visibility. * = Denotes
station may not report precipitation (e.g., rain,snow,etc.),
thunder or fog.

VAZ042-051-052>054-056-260200-
NORTHERN VIRGINIA

CITY           SKY/WX    TMP DP  RH WIND       PRES   REMARKS
WASH NATIONAL  MOCLDY    77  64  64 S8        30.20S
DULLES         MOCLDY    76  57  51 S7        30.19S
FORT BELVOIR   CLEAR     74  59  59 SE5       30.20S
QUANTICO       CLEAR     77  59  53 SW3       30.21S
FREDERICKSBRG* CLEAR     74  60  61 S5        30.20R
STAFFORD*      CLEAR     73  55  53 S3        30.24S
WARRENTON      CLEAR     74  61  63 S3        30.20R
CULPEPER*      CLEAR     73  58  60 CALM      30.20R
MANASSAS*      NOT AVBL
LEESBURG*      CLEAR     77  61  57 S13       30.20R
WINCHESTER     CLEAR     75  52  43 S9        30.17S
FRONT ROYAL*   FAIR      73  57  56 S5        30.17R
LURAY*         FAIR      73  59  60 SW5       30.20R
$$

VAZ048-049-060>072-079>083-260200-
CENTRAL AND SOUTH CENTRAL VIRGINIA

CITY           SKY/WX    TMP DP  RH WIND       PRES   REMARKS
RICHMOND       PTCLDY    72  56  57 S6        30.23R
CHESTERFIELD*  NOT AVBL
PETERSBURG*    CLEAR     66  59  80 CALM      30.24S
HANOVER        CLEAR     74  56  53 S5        30.24R
TAPPAHANNOCK*  CLEAR     72  54  51 CALM      30.23S
QUINTON*       FAIR      74  59  57 CALM      30.23S
CHARLOTTSVILLE CLEAR     73  56  54 S8        30.21R
GORDONSVILLE*  FAIR      69  58  67 CALM      30.21R
ORANGE*        CLEAR     73  55  53 CALM      30.23R
LOUISA*        CLEAR     75  57  53 S6        30.21S
BUMPASS*       FAIR      70  58  65 CALM      30.22R
FARMVILLE*     CLEAR     72  56  58 CALM      30.22R
CREWE*         FAIR      66  58  75 CALM      30.24R
FORT PICKETT*  FAIR      70  55  60 S12       30.24S
CHASE CITY*    FAIR      71  61  70 CALM      30.25R
CLARKSVILLE*   FAIR      68  59  73 CALM      30.24R
SOUTH HILL*    CLEAR     67  59  75 CALM      30.30R
LAWRENCEVILLE* FAIR      70  57  64 CALM      30.25R
EMPORIA*       CLEAR     64  55  72 CALM      30.26R
$$

VAZ088>098-260200-
SOUTHEAST VIRGINIA

CITY           SKY/WX    TMP DP  RH WIND       PRES   REMARKS
NORFOLK        CLEAR     74  55  51 S10G22    30.26S
VIRGINIA BEACH PTCLDY    71  61  70 S10       30.27S
NORFOLK NAVAL  PTCLDY    79  56  45 SE9       30.28R
WEST POINT*    CLEAR     77  57  50 S5        30.25R
SALUDA*        FAIR      70  60  70 SE5       30.24S
NEWPORT NEWS   CLEAR     79  54  41 S10       30.25S
LANGLEY AFB    CLEAR     75  57  54 S9        30.24S
FORT EUSTIS    CLEAR     75  56  50 S7        30.23S
WILLIAMSBURG*  CLEAR     79  57  47 S6        30.25S
HR EXEC AP*    FAIR      73  52  46 S7        30.28S
FRANKLIN*      CLEAR     73  59  62 S9        30.26S
WAKEFIELD      CLEAR     74  56  53 S5        30.25R
$$

VAZ020-022-025-037-045-260200-
WEST CENTRAL AND SOUTHWEST VIRGINIA

CITY           SKY/WX    TMP DP  RH WIND       PRES   REMARKS
STAUNTON*      CLEAR     72  55  54 S5        30.24R
WAYNESBORO*    FAIR      71  55  56 S3        30.24S
HOT SPRINGS VA CLEAR     64  54  69 S10       30.32S
LYNCHBURG      CLEAR     69  57  65 CALM      30.26R
DANVILLE       CLEAR     68  58  70 CALM      30.24S
SOUTH BOSTON*  FAIR      71  58  63 CALM      30.24S
MARTINSVILLE   CLEAR     67  58  73 CALM      30.27S
ROANOKE        PTCLDY    75  55  49 S6        30.26R
BLACKSBURG     CLEAR     69  55  60 S6        30.31R
DUBLIN*        CLEAR     71  57  61 SW3       30.29R
MARION*        PTCLDY    71  55  58 CALM      30.30S
HILLSVILLE*    CLEAR     67  55  66 S5        30.31R
RICHLANDS*     CLOUDY    71  58  63 SE5       30.26S
WISE*          MOCLDY    70  54  56 S3        30.26F
ABINGDON*      MOCLDY    75  59  58 CALM      30.24R
$$

MDZ021>025-VAZ099-100-260200-
SOUTHERN MARYLAND AND THE DELMARVA PENINSULA

CITY           SKY/WX    TMP DP  RH WIND       PRES   REMARKS
PATUXENT RIVER CLEAR     72  57  59 S13       30.22F
BAY BRIDGE APT   N/A    N/A N/A N/A S12G17    30.21S
LEONARDTOWN    CLEAR     70  55  60 SE7       30.24S
DOVER          CLEAR     73  59  61 S13       30.20R
GEORGETOWN     CLEAR     70  53  54 S9G18     30.25S
EASTON         CLEAR     75  59  57 S14G22    30.26S
CAMBRIDGE      CLEAR     72  55  56 S7        30.23S
SALISBURY      CLEAR     68  54  60 S10       30.25F
OCEAN CITY     CLEAR     66  58  75 S8        30.27S
WALLOPS ISLAND CLEAR     65  60  84 S13       30.28F
ACCOMACK*      CLEAR     70  61  73 S14       30.26F
$$

NCZ012>017-030>032-260200-
NORTH CENTRAL AND EASTERN NORTH CAROLINA

CITY           SKY/WX    TMP DP  RH WIND       PRES   REMARKS
ROANOKE RAPIDS FAIR      72  55  56 S5        30.25R
RALEIGH        PTCLDY    75  55  49 S3        30.25S
ELIZABETH CITY CLEAR     71  60  68 S9        30.29S
AHOSKIE*       CLEAR     70  60  69 SE6       30.27S
EDENTON*       CLEAR     72  62  70 S12       30.29R
CURRITUCK*     CLEAR     72  57  60 S3        30.30S
KILL DEVIL HLS CLEAR     72  61  68 S5        30.30S
MANTEO         CLEAR     73  63  71 S14       30.31S
CAPE HATTERAS  CLEAR     73  61  65 S12       30.32S
TARBORO*       FAIR      75  57  53 S3        30.27S
GOLDSBORO      NOT AVBL
WASHINGTON     CLEAR     72  60  65 S7        30.29S
GREENVILLE     CLEAR     73  61  64 S9        30.29R
NEW BERN       CLEAR     70  60  70 SE3       30.31F
WILMINGTON     CLEAR     73  63  70 SE5       30.29S
$$

VAZ048-260200-
ELSEWHERE

CITY           SKY/WX    TMP DP  RH WIND       PRES   REMARKS
HARRISBURG PA  PTCLDY    79  58  48 S9G16     30.15R
BALTIMORE      PTCLDY    72  61  68 SE5       30.19S
ANNAPOLIS      CLEAR     71  60  68 S16G24    30.21R
ANDREWS AFB    CLEAR     72  60  64 S8        30.20S
PHILADELPHIA   PTCLDY    77  58  51 S10       30.20S
HENDERSON NC   CLEAR     72  53  51 S5        30.25S
GREENSBORO     PTCLDY    73  56  54 S5        30.24F
ROCKY MOUNT    CLEAR     75  59  57 S7        30.27R
$$

VAZ100-260200-
MARINE

STATION/POSITION TIME  TEMP    WIND        PRES    WAVE   SWELL
                       AIR SEA DIR/SP/G            HT/PER HT/PER
                 (UTC) (F)     (DEG/KT/KT) (MB)    (FT/S) (FT/S)
BRANDYWINE LGT   0000   69 64  190/ 18/ 20 1023.9F
CAPE MAY NJ      0000   67 68  170/ 14/ 19 1023.9S
LEWES DE         0000   73 64  190/  8/ 12 1024.1S
15NM E FENWICK I 0050   63 61              1024.7F   2/ 4
OCEAN-CITY-INLET 0000   64 63  210/ 11/ 12 1024.9F
WACHAPREAGUE VA  0000   70 75  190/ 14/ 19 1025.0F
THOMAS POINT MD  0100   70 67  170/ 22/ 24 1023.3R
GOOSES REEF MD   0100   70 67  180/ 17/ 21 1024.1R   2/ 3
SOLOMONS ISLAND  0000      71                N/A
BISHOPS HEAD MD  0000   73 74  170/ 20/ 23 1023.6F
PINEY POINT MD   0000          180/ 13/ 14   N/A
CAMBRIDGE MD     0000   74 70  170/  8/ 12 1023.6F
LEWISETTA VA     0000   73 71              1023.4S
RAPPAHANNOCK LGT 0000          140/ 19/ 21 1024.9F
STINGRAY PT      0100   71 71  170/ 17/ 21 1023.7F   2/ 3
YORK RVR RNG VA  0000   73     160/ 19/ 22 1023.4F
YORKTOWN VA      0000   79 71  190/  7/  9 1023.8F
JAMESTOWN VA     0100   76 75  190/ 10/ 12 1023.2R
DOMINION TERM VA 0000   76     180/  8/  9 1024.5S
KIPTOPEKE VA     0000      76  170/ 20/ 23   N/A
CHES BAY BRIDGE  0000   73 70  140/ 13/ 17 1024.5F
CAPE HENRY VA    0000   70     150/ 12/ 16 1023.9F
CHESAPEAKE LGHT  0000   68     160/ 23/ 24 1025.6F
WILLOUBY STN VA  0000   78     170/ 16/ 18 1025.0F
CAPE HENRY BUOY  0028      67                N/A     2/ 4
1ST LANDING BUOY 0100      69              1024.6S
CAPE CHARLES BUO 0026      66                N/A     3/ 3   2/ 8
OFFSHORE WE BUOY 0041      67                N/A     2/ 3   2/ 7
64NM E OF VA BCH 0050   67 65  160/  8/  8 1026.3F   1/ 8   2/ 8
DUCK PIER NC     0000   74 65  180/ 16/ 18 1024.9F
44100 DUCK FRF   0024      63                N/A     2/ 7
44056 DUCK FRF   0011      65                N/A     2/ 8
OREGON INLET NC  0000   73 77  180/ 12/ 14 1026.5F
HATTERAS NC      0000   74 76  150/  8/ 10 1026.1F
DIAMOND SHLS NC  0050   74 77  160/ 12/ 16 1026.7F   2/ 7   2/ 7
CAPE LOOKOUT NC  0100   74     150/  8/  8 1026.2R
$$



USA.gov is the U.S. government's official web portal to all federal, state and local government web resources and services.